Hourly Weather Pastavy

Today, 28 September, Monday

Time Temperature Precipitation Wind Pressure Humidity
00:00 +13°C° 0.1 mm 5 mps 747 mmHg 88%
01:00 +13°C° 0.1 mm 4 mps 747 mmHg 90%
02:00 +12°C° 0.1 mm 3 mps 747 mmHg 92%
03:00 +12°C° 0 mm 3 mps 747 mmHg 92%
04:00 +14°C° 0 mm 2 mps 747 mmHg 93%
05:00 +14°C° 0 mm 2 mps 747 mmHg 93%
06:00 +14°C° 0 mm 2 mps 747 mmHg 93%
07:00 +14°C° 0 mm 2 mps 748 mmHg 93%
08:00 +14°C° 0 mm 2 mps 748 mmHg 93%
09:00 +12°C° 0 mm 3 mps 748 mmHg 91%
10:00 +12°C° 0 mm 3 mps 749 mmHg 89%
11:00 +12°C° 0 mm 4 mps 749 mmHg 88%
12:00 +12°C° 0 mm 4 mps 749 mmHg 85%
13:00 +12°C° 0 mm 3 mps 749 mmHg 83%
14:00 +13°C° 0 mm 3 mps 750 mmHg 81%
15:00 +13°C° 0 mm 3 mps 750 mmHg 80%
16:00 +14°C° 0 mm 2 mps 750 mmHg 80%
17:00 +14°C° 0 mm 1 mps 750 mmHg 79%
18:00 +14°C° 0 mm 1 mps 750 mmHg 81%
19:00 +13°C° 0 mm 2 mps 750 mmHg 82%
20:00 +12°C° 0 mm 2 mps 750 mmHg 83%
21:00 +12°C° 0 mm 2 mps 751 mmHg 84%
22:00 +10°C° 0 mm 2 mps 751 mmHg 85%
23:00 +9°C° 0 mm 2 mps 751 mmHg 86%

Tomorrow, 29 September, Tuesday

Time Temperature Precipitation Wind Pressure Humidity
00:00 +9°C° 0 mm 2 mps 751 mmHg 86%
01:00 +9°C° 0 mm 2 mps 751 mmHg 86%
02:00 +9°C° 0 mm 1 mps 751 mmHg 87%
03:00 +9°C° 0 mm 1 mps 751 mmHg 87%
04:00 +9°C° 0 mm 1 mps 751 mmHg 87%
05:00 +9°C° 0 mm 1 mps 751 mmHg 87%
06:00 +9°C° 0 mm 2 mps 751 mmHg 85%
07:00 +9°C° 0 mm 2 mps 751 mmHg 83%
08:00 +10°C° 0 mm 2 mps 751 mmHg 81%
09:00 +13°C° 0 mm 2 mps 751 mmHg 74%
10:00 +15°C° 0 mm 2 mps 751 mmHg 68%
11:00 +17°C° 0 mm 3 mps 751 mmHg 61%
12:00 +17°C° 0 mm 3 mps 751 mmHg 60%
13:00 +18°C° 0 mm 3 mps 751 mmHg 58%
14:00 +19°C° 0 mm 3 mps 751 mmHg 56%
15:00 +18°C° 0 mm 3 mps 750 mmHg 61%
16:00 +17°C° 0 mm 3 mps 750 mmHg 67%
17:00 +16°C° 0 mm 3 mps 750 mmHg 72%
18:00 +13°C° 0 mm 3 mps 750 mmHg 78%
19:00 +12°C° 0 mm 3 mps 750 mmHg 83%
20:00 +11°C° 0 mm 3 mps 750 mmHg 89%
21:00 +10°C° 0 mm 3 mps 750 mmHg 90%
22:00 +10°C° 0 mm 3 mps 750 mmHg 92%
23:00 +9°C° 0 mm 3 mps 749 mmHg 93%

Day after tomorrow, 30 September, Wednesday

Time Temperature Precipitation Wind Pressure Humidity
00:00 +9°C° 0 mm 3 mps 749 mmHg 94%
01:00 +9°C° 0 mm 3 mps 749 mmHg 95%
02:00 +9°C° 0 mm 3 mps 749 mmHg 95%
03:00 +9°C° 0 mm 3 mps 749 mmHg 96%
04:00 +9°C° 0 mm 3 mps 749 mmHg 96%
05:00 +9°C° 0 mm 3 mps 748 mmHg 97%
06:00 +9°C° 0 mm 3 mps 748 mmHg 93%
07:00 +10°C° 0 mm 3 mps 748 mmHg 90%
08:00 +10°C° 0 mm 4 mps 748 mmHg 86%
09:00 +12°C° 0 mm 4 mps 748 mmHg 79%
10:00 +13°C° 0 mm 4 mps 748 mmHg 73%
11:00 +15°C° 0 mm 4 mps 748 mmHg 66%
12:00 +17°C° 0 mm 4 mps 747 mmHg 63%
13:00 +17°C° 0 mm 4 mps 747 mmHg 61%
14:00 +18°C° 0 mm 4 mps 747 mmHg 58%
15:00 +17°C° 0 mm 4 mps 747 mmHg 62%
16:00 +15°C° 0 mm 4 mps 747 mmHg 66%
17:00 +15°C° 0 mm 4 mps 747 mmHg 70%
18:00 +14°C° 0 mm 4 mps 747 mmHg 72%
19:00 +13°C° 0 mm 4 mps 747 mmHg 75%
20:00 +12°C° 0 mm 4 mps 747 mmHg 77%
21:00 +11°C° 0 mm 3 mps 747 mmHg 78%
22:00 +10°C° 0 mm 3 mps 747 mmHg 79%
23:00 +9°C° 0 mm 3 mps 747 mmHg 81%

1 October, Thursday

Time Temperature Precipitation Wind Pressure Humidity
00:00 +9°C° 0 mm 3 mps 747 mmHg 80%
01:00 +9°C° 0 mm 3 mps 747 mmHg 80%
02:00 +8°C° 0 mm 3 mps 747 mmHg 80%
03:00 +8°C° 0 mm 3 mps 747 mmHg 79%
04:00 +8°C° 0 mm 3 mps 747 mmHg 78%
05:00 +7°C° 0 mm 3 mps 747 mmHg 77%
06:00 +7°C° 0 mm 4 mps 747 mmHg 74%
07:00 +8°C° 0 mm 4 mps 747 mmHg 71%
08:00 +8°C° 0 mm 4 mps 746 mmHg 67%
09:00 +10°C° 0 mm 5 mps 746 mmHg 64%
10:00 +12°C° 0 mm 5 mps 746 mmHg 61%
11:00 +14°C° 0 mm 5 mps 746 mmHg 58%
12:00 +14°C° 0 mm 5 mps 746 mmHg 60%
13:00 +14°C° 0 mm 5 mps 746 mmHg 62%
14:00 +15°C° 0 mm 5 mps 746 mmHg 64%
15:00 +14°C° 0 mm 5 mps 746 mmHg 67%
16:00 +14°C° 0 mm 5 mps 746 mmHg 70%
17:00 +13°C° 0 mm 4 mps 746 mmHg 73%
18:00 +12°C° 0.1 mm 4 mps 746 mmHg 78%
19:00 +12°C° 0.1 mm 4 mps 746 mmHg 84%
20:00 +11°C° 0.1 mm 4 mps 746 mmHg 89%
21:00 +10°C° 0 mm 4 mps 746 mmHg 88%
22:00 +10°C° 0 mm 3 mps 746 mmHg 88%
23:00 +10°C° 0 mm 3 mps 746 mmHg 88%

2 October, Friday

Time Temperature Precipitation Wind Pressure Humidity
00:00 +9°C° 0 mm 3 mps 746 mmHg 89%
01:00 +8°C° 0 mm 3 mps 746 mmHg 90%
02:00 +8°C° 0 mm 3 mps 745 mmHg 91%
03:00 +7°C° 0 mm 3 mps 745 mmHg 91%
04:00 +7°C° 0 mm 3 mps 745 mmHg 91%
05:00 +7°C° 0 mm 3 mps 745 mmHg 90%
06:00 +8°C° 0 mm 3 mps 745 mmHg 88%
07:00 +8°C° 0 mm 4 mps 745 mmHg 85%
08:00 +10°C° 0 mm 4 mps 745 mmHg 82%
09:00 +10°C° 0 mm 5 mps 745 mmHg 81%
10:00 +12°C° 0 mm 5 mps 745 mmHg 81%
11:00 +13°C° 0 mm 5 mps 745 mmHg 80%
12:00 +13°C° 0 mm 5 mps 745 mmHg 78%
13:00 +14°C° 0 mm 5 mps 745 mmHg 77%
14:00 +14°C° 0 mm 5 mps 745 mmHg 76%
15:00 +14°C° 0 mm 5 mps 745 mmHg 76%
16:00 +14°C° 0 mm 5 mps 745 mmHg 75%
17:00 +14°C° 0 mm 4 mps 745 mmHg 74%
18:00 +14°C° 0 mm 5 mps 745 mmHg 76%
19:00 +14°C° 0 mm 5 mps 745 mmHg 78%
20:00 +13°C° 0 mm 5 mps 745 mmHg 79%
21:00 +13°C° 0 mm 5 mps 745 mmHg 82%
22:00 +12°C° 0 mm 5 mps 745 mmHg 85%
23:00 +11°C° 0 mm 4 mps 745 mmHg 88%

3 October, Saturday

Time Temperature Precipitation Wind Pressure Humidity
00:00 +11°C° 0 mm 4 mps 745 mmHg 87%
01:00 +10°C° 0 mm 5 mps 745 mmHg 86%
02:00 +10°C° 0 mm 5 mps 745 mmHg 86%
03:00 +10°C° 0 mm 5 mps 745 mmHg 85%
04:00 +10°C° 0 mm 5 mps 745 mmHg 85%
05:00 +10°C° 0 mm 5 mps 745 mmHg 85%
06:00 +12°C° 0 mm 5 mps 745 mmHg 85%
07:00 +12°C° 0 mm 5 mps 744 mmHg 84%
08:00 +12°C° 0 mm 5 mps 744 mmHg 84%
09:00 +12°C° 0 mm 5 mps 744 mmHg 83%
10:00 +13°C° 0 mm 6 mps 744 mmHg 82%
11:00 +13°C° 0 mm 6 mps 744 mmHg 81%
12:00 +13°C° 0.3 mm 6 mps 744 mmHg 83%
13:00 +13°C° 0.3 mm 6 mps 744 mmHg 85%
14:00 +13°C° 0.3 mm 6 mps 744 mmHg 87%
15:00 +13°C° 0.1 mm 6 mps 744 mmHg 87%
16:00 +13°C° 0.1 mm 6 mps 744 mmHg 88%
17:00 +13°C° 0.1 mm 6 mps 744 mmHg 88%
18:00 +13°C° 0.4 mm 6 mps 745 mmHg 89%
19:00 +13°C° 0.4 mm 6 mps 745 mmHg 90%
20:00 +13°C° 0.4 mm 6 mps 745 mmHg 91%
21:00 +13°C° 0.6 mm 6 mps 745 mmHg 91%
22:00 +14°C° 0.6 mm 6 mps 745 mmHg 91%
23:00 +14°C° 0.6 mm 6 mps 745 mmHg 91%
Show more